Regional Weather Roundup
Issued by NWS Grand Forks, ND

Home | Current Version | Previous Version | Text Only | Print | Product List | Glossary Off
Versions: 1 2 3 4 5 6 7 8 9 10 11 12 13 14 15 16 17 18 19 20 21 22 23 24 25 26 27 28 29 30 31 32 33 34 35 36 37 38 39 40 41 42 43 44 45 46 47 48 49 50

422
ASUS43 KFGF 211210
RWRFGF
PRAIRIE TO PINES  WEATHER ROUNDUP
NATIONAL WEATHER SERVICE EASTERN NORTH DAKOTA/GRAND FORKS ND
600 AM CST TUE NOV 21 2017

 **SATELLITE DATA USED TO AUGMENT SKY COVER AT AUTOMATED STATIONS**
 *****  WEATHER ACROSS EASTERN NORTH DAKOTA  *****

CITY           SKY/WX    TMP DP  RH WIND       PRES   REMARKS
GRAND FORKS    CLOUDY    14   9  80 NW23G36   30.04R WCI  -5
6HR MIN TEMP:  14; 6HR MAX TEMP:  22; 6HR PCP: TRACE;

GRAND FRKS AFB FAIR      13   6  71 N20G31    30.06R WCI  -4
DEVILS LAKE    FAIR      12   6  77 NW24      30.10R WCI  -8
6HR MIN TEMP:  12; 6HR MAX TEMP:  18; 6HR PCP: TRACE;

FARGO          CLOUDY    18  10  71 N25G36    30.02R WCI   0
WAHPETON ARPT  NOT AVBL
$$

 ***** WEATHER ACROSS CENTRAL AND WESTERN NORTH DAKOTA  *****

CITY           SKY/WX    TMP DP  RH WIND       PRES   REMARKS
BISMARCK       FAIR      16   6  65 NW18G30   30.22R WCI   0
6HR MIN TEMP:  16; 6HR MAX TEMP:  22;

MINOT          FAIR       7   1  76 W21       30.20R WCI -13
6HR MIN TEMP:   7; 6HR MAX TEMP:  12;

JAMESTOWN      FAIR      12   7  80 NW25G35   30.08R WCI  -8
6HR MIN TEMP:  12; 6HR MAX TEMP:  19; 6HR PCP: TRACE;

MINOT AFB      FAIR       6   0  77 NW17      30.20R WCI -13
GARRISON         N/A      6   1  80 NW22G28   30.21R WCI -15
WILLISTON      FAIR       3  -2  79 W10       30.31R WCI -12
6HR MIN TEMP:   3; 6HR MAX TEMP:   8;

DICKINSON      FAIR       4  -1  80 W17       30.20R WCI -16
6HR MIN TEMP:   4; 6HR MAX TEMP:  19;

HETTINGER      FAIR       6  -2  69 NW14      30.23R WCI -11
6HR MIN TEMP:   6; 6HR MAX TEMP:  30;

$$

 *****  OTHER AIRPORT OBSERVATIONS IN OUR AREA  *****

CITY           SKY/WX    TMP DP  RH WIND       PRES   REMARKS
WALHALLA       FAIR      10   9  92 NW17G28   30.10R WCI  -7
GRAFTON AIRPOR CLOUDY    12   7  79 NW25G37   30.08R WCI  -8
VALLEY CITY AR FLURRIES  14   9  79 NW21G31   30.07R WCI  -4
CANDO          FAIR      10   5  79 NW18G25   30.14R WCI  -8
CAVALIER APRT  CLOUDY    12   5  73 NW23G30   30.08R WCI  -7
GWINNER          N/A     16   9  73 NW23G32   30.05R WCI  -2
SHEYENNE NWR     N/A     18   9  68 NW17      29.95S WCI   3
ROLLA          FAIR       9   3  78 NW25      30.11R WCI -13
 ***** THE ABOVE OBSERVATIONS ARE NON NWS ARE NOT QUALITY
       CONTROLLED AND MAY MIS-REPORT RAIN FOR SNOW...
$$

  *****  WEATHER ACROSS NORTHERN MINNESOTA  *****

CITY           SKY/WX    TMP DP  RH WIND       PRES   REMARKS
FLAG ISLAND    MOCLDY    14   9  79 NW25      29.88R WCI  -5
WARROAD        FAIR      12   9  85 NW15G23   29.91R WCI  -4
ROSEAU         FAIR      16   9  73 N22       29.92R WCI  -2
HALLOCK        FLURRIES  12   9  85 N25G35    30.03R WCI  -8
THF RVR FALLS  FLURRIES  12   8  84 NW23      29.95R WCI  -7
6HR MIN TEMP:  12; 6HR MAX TEMP:  17; 6HR PCP: TRACE;

BAUDETTE       FLURRIES  16   8  71 NW23G43   29.83R WCI  -2
6HR MIN TEMP:  16; 6HR MAX TEMP:  22; 6HR PCP: TRACE;

WASKISH        FLURRIES  18  10  73 NW20G28   29.83R WCI   1
CROOKSTON      FLURRIES  12   9  85 N28G37    30.01R WCI  -9
STEPHEN NDAWN    N/A     12   9  85 N20         N/A  WCI  -6
GREENBUSH NDAW   N/A     12   7  79 NW21        N/A  WCI  -6
$$
  *****  WEATHER ACROSS CENTRAL AND WEST MINNESOTA  *****

CITY           SKY/WX    TMP DP  RH WIND       PRES   REMARKS
FOSSTON        LGT SNOW  12   9  85 NW15G23   29.93R WCI  -4
BEMIDJI        FLURRIES  15   9  78 NW22G32   29.84R WCI  -3
6HR MIN TEMP:  15; 6HR MAX TEMP:  23;

PARK RAPIDS    FLURRIES  16   8  71 NW22G32   29.83R WCI  -2
6HR MIN TEMP:  16; 6HR MAX TEMP:  25; 6HR PCP: TRACE;

ELBOW LAKE     CLOUDY    18  10  71 NW23G33   29.95R HAZE    WCI   1
WADENA         LGT SNOW  16  10  79 NW20G30   29.86R WCI  -1
DETROIT LAKES  LGT SNOW  16  12  86 NW23G35   29.93R WCI  -2
MOORHEAD       MIX PCPN  18  10  73 N21       30.01R WCI   1
FERGUS FALLS   FLURRIES  18  10  73 N28G35    29.98R WCI  -1
MORRIS MN      FAIR      19  10  68 NW35G41   29.94R WCI  -1
STAPLES        CLOUDY    16   7  67 NW24G35   29.84R WCI  -3
$$
  *****  WEATHER ELSEWHERE ACROSS MINNESOTA  *****

CITY           SKY/WX    TMP DP  RH WIND       PRES   REMARKS
DULUTH         FLURRIES  20  11  68 NW22G41   29.62R WCI   3
6HR MIN TEMP:  20; 6HR MAX TEMP:  35; 6HR PCP: TRACE;

INTRNTL FALLS  LGT SNOW  17  10  74 NW20G30   29.75R WCI   1
6HR MIN TEMP:  17; 6HR MAX TEMP:  25; 6HR PCP: TRACE;

ELY            LGT SNOW  19  14  79 NW21G30   29.57R WCI   3
CLOQUET        FLURRIES  19   9  63 NW21G35   29.66R WCI   3
WHEATON        FLURRIES  19  10  68 NW17G25   30.03R WCI   4
BRAINERD       CLOUDY    19   6  57 NW26G40   29.81R WCI   1
6HR MIN TEMP:  19; 6HR MAX TEMP:  34; 6HR PCP: TRACE;

HIBBING        FLURRIES  18  11  74 NW21G31   29.66R WCI   1
6HR MIN TEMP:  18; 6HR MAX TEMP:  30; 6HR PCP: TRACE;

ALEXANDRIA     CLOUDY    19  10  68 NW23G33   29.88R WCI   2
6HR MIN TEMP:  19; 6HR MAX TEMP:  29; 6HR PCP: TRACE;

SAINT CLOUD    CLOUDY    24  13  62 NW28G39   29.80R WCI   7
6HR MIN TEMP:  24; 6HR MAX TEMP:  36; 6HR PCP: TRACE;

MINNEAPOLIS    CLOUDY    28  16  60 NW24G30   29.78R WCI  14
6HR MIN TEMP:  28; 6HR MAX TEMP:  42;

$$

  *****  WEATHER ACROSS SOUTH DAKOTA  *****

CITY           SKY/WX    TMP DP  RH WIND       PRES   REMARKS
SIOUX FALLS    MOCLDY    22   9  57 NW21G33   30.01R WCI   6
6HR MIN TEMP:  22; 6HR MAX TEMP:  40;

BROOKINGS      FLURRIES  17   9  70 NW25G31   29.99R WCI  -1
WATERTOWN      CLOUDY    16   8  71 NW23G35   30.00R WCI  -2
6HR MIN TEMP:  16; 6HR MAX TEMP:  32; 6HR PCP: TRACE;

HURON          FAIR      15   6  67 NW21G33   30.12R WCI  -2
6HR MIN TEMP:  15; 6HR MAX TEMP:  39;

SISSETON         N/A     18   9  68 NW29G40   30.01R WCI  -1
ABERDEEN       FAIR      15   6  67 NW20      30.12R WCI  -2
6HR MIN TEMP:  14; 6HR MAX TEMP:  34;

MITCHELL       FAIR      20   6  55 NW30G38   30.12R WCI   1
PIERRE         FLURRIES  16   4  59 N18G28    30.19R WCI   0
6HR MIN TEMP:  16; 6HR MAX TEMP:  40; 6HR PCP: TRACE;

MOBRIDGE       FAIR      14   4  64 NW21G39   30.15R WCI  -4
RAPID CITY     MOCLDY    28  22  78 N21       30.16R WCI  15
6HR MIN TEMP:  27; 6HR MAX TEMP:  37; 6HR PCP: TRACE;

$$

  *****  SOME WEATHER IN NEARBY STATES *****

CITY           SKY/WX    TMP DP  RH WIND       PRES   REMARKS
GLASGOW MT     FAIR       2  -3  80 NW5       30.33R WCI  -8
6HR MIN TEMP:   2; 6HR MAX TEMP:  10;

GREAT FALLS MT FAIR      18  14  84 E6        30.20F WCI  10
6HR MIN TEMP:  17; 6HR MAX TEMP:  24; 6HR PCP:  0.01;

CHEYENNE WY    LGT RAIN  42  35  76 NW21G26   30.09R
6HR MIN TEMP:  42; 6HR MAX TEMP:  48; 6HR PCP: TRACE;

SCOTTSBLUFF NE CLOUDY    36  25  64 N15       30.14R
6HR MIN TEMP:  36; 6HR MAX TEMP:  53;

OMAHA NE       LGT RAIN  39  27  62 N24G35    29.91R
6HR MIN TEMP:  34; 6HR MAX TEMP:  43; 6HR PCP: TRACE;

DES MOINES IA  CLOUDY    42  24  49 NW12      29.85R
6HR MIN TEMP:  42; 6HR MAX TEMP:  47;

DAVENPORT IA   FAIR      41  31  67 W7        29.74R
6HR MIN TEMP:  40; 6HR MAX TEMP:  48;

CHICAGO IL     MOCLDY    42  31  64 SW12G23   29.66F
6HR MIN TEMP:  42; 6HR MAX TEMP:  44;

EAU CLAIRE WI  FAIR      27  13  55 NW23G30   29.69R WCI  12
6HR MIN TEMP:  27; 6HR MAX TEMP:  39;

LA CROSSE WI   FAIR      36  16  44 NW22G32   29.68R
6HR MIN TEMP:  36; 6HR MAX TEMP:  46;

$$

  *****  SOME NATIONAL WEATHER *****

CITY           SKY/WX    TMP DP  RH WIND       PRES   REMARKS
LA GUARDIA NY  FAIR      44  29  55 SW8       30.13R
6HR MIN TEMP:  43; 6HR MAX TEMP:  45;

RALEIGH NC     FAIR      38  30  73 S3        30.22F
6HR MIN TEMP:  30; 6HR MAX TEMP:  39;

ATLANTA GA     MOCLDY    45  39  79 E7        30.13S
6HR MIN TEMP:  42; 6HR MAX TEMP:  46;

NEW ORLEANS LA MOCLDY    50  47  89 E6        30.02S
6HR MIN TEMP:  50; 6HR MAX TEMP:  57;

OKLAHOMA CITY  CLOUDY    43  33  68 SE6       29.82R
6HR MIN TEMP:  38; 6HR MAX TEMP:  45;

ALBUQUERQUE NM FAIR      48   3  15 N20       30.16R
6HR MIN TEMP:  43; 6HR MAX TEMP:  49;

SALT LAKE CITY MOCLDY    45  38  76 CALM      30.24R
6HR MIN TEMP:  44; 6HR MAX TEMP:  48;

LOS ANGELES CA MOCLDY    60  50  69 E5        30.02S
6HR MIN TEMP:  59; 6HR M



USA.gov is the U.S. government's official web portal to all federal, state and local government web resources and services.